When you browse on this site, cookies collect data to enhance your experience and personalize the content and advertising you see.
Visit our Privacy Policy to learn more. By continuing to use the site, you agree to this use of cookies and data.
  • In Spain
  • List of Countries
  • For 7 days
  • Water Temperature
  • Satellite Maps
  • Weather Map
  • Weather Widgets
  • user-avatar
    Login

    Hourly Weather Graz

    Today, 18 January, Friday

    Time Temperature Precipitation Wind Pressure Humidity
    00:00 +5°C° 1.1 mm 1 mps 718 mmHg 89%
    01:00 +4°C° 0 mm 1 mps 718 mmHg 92%
    02:00 +4°C° 1.4 mm 1 mps 718 mmHg 91%
    03:00 +4°C° 1.4 mm 1 mps 719 mmHg 91%
    04:00 +2°C° 1.4 mm 0 mps 719 mmHg 90%
    05:00 +2°C° 0.6 mm 0 mps 719 mmHg 90%
    06:00 +2°C° 0.6 mm 0 mps 720 mmHg 90%
    07:00 +1°C° 0 mm 0 mps 720 mmHg 91%
    08:00 +3°C° 0.8 mm 1 mps 721 mmHg 89%
    09:00 +3°C° 0.8 mm 1 mps 722 mmHg 88%
    10:00 +3°C° 0.8 mm 1 mps 723 mmHg 87%
    11:00 +3°C° 0.1 mm 1 mps 723 mmHg 80%
    12:00 +4°C° 0.1 mm 1 mps 723 mmHg 72%
    13:00 +3°C° 0.1 mm 2 mps 724 mmHg 65%
    14:00 +3°C° 0 mm 1 mps 724 mmHg 68%
    15:00 +3°C° 0 mm 1 mps 724 mmHg 70%
    16:00 +2°C° 0 mm 1 mps 725 mmHg 73%
    17:00 +1°C° 0 mm 1 mps 725 mmHg 75%
    18:00 -1°C° 0 mm 1 mps 725 mmHg 77%
    19:00 -2°C° 0 mm 1 mps 725 mmHg 79%
    20:00 -3°C° 0 mm 1 mps 726 mmHg 80%
    21:00 -3°C° 0 mm 1 mps 726 mmHg 81%
    22:00 -4°C° 0 mm 1 mps 726 mmHg 82%
    23:00 -4°C° 0 mm 1 mps 726 mmHg 81%

    Tomorrow, 19 January, Saturday

    Time Temperature Precipitation Wind Pressure Humidity
    00:00 -4°C° 0 mm 1 mps 726 mmHg 81%
    01:00 -4°C° 0 mm 1 mps 726 mmHg 81%
    02:00 -4°C° 0 mm 1 mps 726 mmHg 81%
    03:00 -4°C° 0 mm 1 mps 726 mmHg 81%
    04:00 -6°C° 0 mm 1 mps 726 mmHg 81%
    05:00 -6°C° 0 mm 1 mps 726 mmHg 81%
    06:00 -6°C° 0 mm 0 mps 726 mmHg 82%
    07:00 -6°C° 0 mm 0 mps 726 mmHg 83%
    08:00 -5°C° 0 mm 0 mps 726 mmHg 81%
    09:00 -3°C° 0 mm 0 mps 726 mmHg 79%
    10:00 -2°C° 0 mm 0 mps 726 mmHg 78%
    11:00 -1°C° 0 mm 0 mps 725 mmHg 74%
    12:00 0°C° 0 mm 1 mps 725 mmHg 71%
    13:00 +1°C° 0 mm 1 mps 724 mmHg 67%
    14:00 0°C° 0 mm 1 mps 724 mmHg 70%
    15:00 0°C° 0 mm 1 mps 724 mmHg 73%
    16:00 -1°C° 0 mm 1 mps 723 mmHg 76%
    17:00 -2°C° 0 mm 1 mps 723 mmHg 78%
    18:00 -3°C° 0 mm 0 mps 723 mmHg 80%
    19:00 -4°C° 0 mm 0 mps 723 mmHg 82%
    20:00 -4°C° 0 mm 0 mps 723 mmHg 82%
    21:00 -4°C° 0 mm 0 mps 723 mmHg 82%
    22:00 -4°C° 0 mm 0 mps 723 mmHg 82%
    23:00 -4°C° 0 mm 0 mps 723 mmHg 83%

    Day after tomorrow, 20 January, Sunday

    Time Temperature Precipitation Wind Pressure Humidity
    00:00 -4°C° 0 mm 1 mps 722 mmHg 83%
    01:00 -4°C° 0 mm 1 mps 722 mmHg 83%
    02:00 -3°C° 0 mm 1 mps 722 mmHg 84%
    03:00 -3°C° 0 mm 1 mps 722 mmHg 84%
    04:00 -3°C° 0 mm 1 mps 722 mmHg 84%
    05:00 -3°C° 0 mm 1 mps 722 mmHg 84%
    06:00 -4°C° 0 mm 1 mps 722 mmHg 84%
    07:00 -4°C° 0 mm 1 mps 722 mmHg 84%
    08:00 -2°C° 0 mm 1 mps 722 mmHg 80%
    09:00 -2°C° 0 mm 0 mps 722 mmHg 76%
    10:00 -1°C° 0 mm 0 mps 723 mmHg 72%
    11:00 0°C° 0 mm 0 mps 722 mmHg 71%
    12:00 +2°C° 0 mm 0 mps 722 mmHg 69%
    13:00 +3°C° 0 mm 0 mps 722 mmHg 67%
    14:00 +2°C° 0 mm 0 mps 722 mmHg 71%
    15:00 +2°C° 0 mm 1 mps 722 mmHg 76%
    16:00 +1°C° 0 mm 1 mps 722 mmHg 81%
    17:00 -1°C° 0 mm 0 mps 723 mmHg 84%
    18:00 -2°C° 0 mm 0 mps 723 mmHg 87%
    19:00 -4°C° 0 mm 0 mps 723 mmHg 90%
    20:00 -4°C° 0 mm 0 mps 724 mmHg 90%
    21:00 -4°C° 0 mm 0 mps 724 mmHg 90%
    22:00 -4°C° 0 mm 0 mps 725 mmHg 90%
    23:00 -4°C° 0 mm 0 mps 725 mmHg 90%

    21 January, Monday

    Time Temperature Precipitation Wind Pressure Humidity
    00:00 -3°C° 0 mm 1 mps 725 mmHg 89%
    01:00 -3°C° 0 mm 1 mps 726 mmHg 88%
    02:00 -3°C° 0 mm 1 mps 726 mmHg 88%
    03:00 -3°C° 0 mm 1 mps 726 mmHg 87%
    04:00 -4°C° 0 mm 1 mps 726 mmHg 86%
    05:00 -4°C° 0 mm 1 mps 726 mmHg 85%
    06:00 -4°C° 0 mm 1 mps 727 mmHg 84%
    07:00 -4°C° 0 mm 1 mps 727 mmHg 83%
    08:00 -3°C° 0 mm 1 mps 727 mmHg 80%
    09:00 -2°C° 0 mm 1 mps 728 mmHg 76%
    10:00 -1°C° 0 mm 1 mps 728 mmHg 73%
    11:00 -1°C° 0 mm 0 mps 728 mmHg 71%
    12:00 +1°C° 0 mm 0 mps 728 mmHg 69%
    13:00 +2°C° 0 mm 0 mps 728 mmHg 67%
    14:00 +1°C° 0 mm 0 mps 728 mmHg 70%
    15:00 0°C° 0 mm 0 mps 727 mmHg 73%
    16:00 +1°C° 0 mm 1 mps 727 mmHg 76%
    17:00 -1°C° 0 mm 0 mps 728 mmHg 78%
    18:00 -2°C° 0 mm 0 mps 728 mmHg 81%
    19:00 -3°C° 0 mm 0 mps 728 mmHg 83%
    20:00 -4°C° 0 mm 0 mps 728 mmHg 84%
    21:00 -4°C° 0 mm 0 mps 728 mmHg 84%
    22:00 -5°C° 0 mm 0 mps 729 mmHg 85%
    23:00 -5°C° 0 mm 0 mps 728 mmHg 85%

    22 January, Tuesday

    Time Temperature Precipitation Wind Pressure Humidity
    00:00 -5°C° 0 mm 0 mps 728 mmHg 85%
    01:00 -6°C° 0 mm 0 mps 728 mmHg 84%
    02:00 -6°C° 0 mm 0 mps 727 mmHg 84%
    03:00 -6°C° 0 mm 0 mps 726 mmHg 84%
    04:00 -6°C° 0 mm 0 mps 726 mmHg 85%
    05:00 -6°C° 0 mm 0 mps 726 mmHg 84%
    06:00 -7°C° 0 mm 0 mps 725 mmHg 84%
    07:00 -7°C° 0 mm 0 mps 725 mmHg 84%
    08:00 -5°C° 0 mm 0 mps 724 mmHg 80%
    09:00 -4°C° 0 mm 0 mps 724 mmHg 75%
    10:00 -2°C° 0 mm 0 mps 724 mmHg 71%
    11:00 -2°C° 0 mm 0 mps 723 mmHg 69%
    12:00 0°C° 0 mm 1 mps 721 mmHg 68%
    13:00 +1°C° 0 mm 1 mps 720 mmHg 66%
    14:00 0°C° 0 mm 1 mps 719 mmHg 71%
    15:00 0°C° 0 mm 1 mps 718 mmHg 76%
    16:00 -1°C° 0 mm 1 mps 717 mmHg 81%
    17:00 -1°C° 0 mm 1 mps 717 mmHg 84%
    18:00 -3°C° 0 mm 0 mps 717 mmHg 86%
    19:00 -4°C° 0 mm 0 mps 716 mmHg 89%
    20:00 -4°C° 0 mm 0 mps 715 mmHg 89%
    21:00 -4°C° 0 mm 0 mps 715 mmHg 90%
    22:00 -4°C° 0 mm 0 mps 714 mmHg 90%
    23:00 -4°C° 0 mm 0 mps 713 mmHg 91%

    23 January, Wednesday

    Time Temperature Precipitation Wind Pressure Humidity
    00:00 -4°C° 0 mm 0 mps 712 mmHg 91%
    01:00 -4°C° 0 mm 0 mps 712 mmHg 92%
    02:00 -5°C° 0 mm 0 mps 711 mmHg 91%
    03:00 -5°C° 0 mm 0 mps 710 mmHg 90%
    04:00 -4°C° 0 mm 1 mps 710 mmHg 90%
    05:00 -4°C° 0 mm 1 mps 709 mmHg 88%
    06:00 -4°C° 0 mm 1 mps 708 mmHg 87%
    07:00 -4°C° 0 mm 1 mps 708 mmHg 86%
    08:00 -4°C° 0 mm 0 mps 708 mmHg 82%
    09:00 -3°C° 0 mm 0 mps 707 mmHg 78%
    10:00 -2°C° 0 mm 0 mps 707 mmHg 75%
    11:00 -2°C° 0 mm 0 mps 706 mmHg 73%
    12:00 0°C° 0 mm 1 mps 705 mmHg 72%
    13:00 +1°C° 0 mm 1 mps 704 mmHg 71%
    14:00 0°C° 0.3 mm 1 mps 704 mmHg 77%
    15:00 -1°C° 0.3 mm 0 mps 703 mmHg 83%
    16:00 -2°C° 0.3 mm 0 mps 702 mmHg 89%
    17:00 -1°C° 0.5 mm 1 mps 702 mmHg 91%
    18:00 -1°C° 0.5 mm 1 mps 701 mmHg 92%
    19:00 -1°C° 0.5 mm 1 mps 701 mmHg 94%
    20:00 -1°C° 0.8 mm 1 mps 701 mmHg 94%
    21:00 -1°C° 0.8 mm 1 mps 701 mmHg 94%
    22:00 -2°C° 0.8 mm 1 mps 701 mmHg 94%
    23:00 -2°C° 0.3 mm 1 mps 701 mmHg 92%
    Show more